Location: Hobi?a Gr?di?te
(45.4833°N, 22.7833°E)
Time: 11:28:49
(UTC+00:00)

Cosmos 407 Rocket - Pass Details

Date: 28 January 2023
Orbit: 742 x 786 km, 74.0° (Epoch: 31 March)

Event Time Altitude Azimuth Distance (km) Brightness Sun altitude
Rises 17:39:09 0° 213° (SSW) 3,200 7.2 -22.8°
Reaches altitude 10° 17:41:34 10° 218° (SW) 2,273 6.4 -23.2°
Maximum altitude 17:46:36 54° 295° (WNW) 910 4.1 -24.1°
Enters shadow 17:50:25 17° 9° (N) 1,818 5.3 -24.7°
